Showing default

FGN-100-D2, 66299

Orbit data source: Space-Track

FGN-100-D2, 66299 is a Turkish payload satellite in LEO that was launched on Sun, 02 Nov 2025 UTC via an FALCON 9 launch vehicle from the Air Force Eastern Test Range (AFETR). Payload-class satellites include a variety of spacecraft equipped with specific instruments for various scientific and technological missions. These include communications satellites like Starlink; space stations such as the ISS; scientific satellites like the Hubble; Earth observation satellites from companies like Planet Labs, Umbra, and HawkEye 360; GPS; miniature CubeSats for education and research; and military/defense satellites.

Loading next visibility...
Identifier
66299, 2025-248G
Orbit
LEO
Country
Flag of TRTR / TURK
Related business
Manufacturer
FERG
Mission
Operational Commercial Navigation
Bus & Motor
FGN-100, Unknown motor
Mass
102 kg wet, 102 kg dry
Launch date (UTC)
2025-11-02 (8 months ago)
Launch vehicle
FALCON 9
Launch site
Air Force Eastern Test Range (AFETR)
Object type
Payload
Rocket body
Debris
Shape & HBR
Box, Unknown HBR
Radar Cross Section
0.480 m², Medium (>0.1 m² and < 1m²)

Expand to show TLE details & history
Last TLE update: 16 hours ago

TLE from 16 hours ago
0 FGN-100-D2
1 66299U 25248G   26171.17778161  .00002845  00000-0  14065-3 0  9996
2 66299  45.4008 105.0776 0004050  58.2516 301.8765 15.20480758 34970
Epoch: 2026-06-20T04:16Z
TLE epoch observation values (Epoch: 2026-06-20T04:16:00.331Z)
Latitude
0.00002°
Longitude
132.6801°
Altitude
502.962 km
Speed
7.615 km/s
True Right ascension
07h 00m 18s
True Declination
0° 00' 00"
Sunlit
Object was in daylight at epoch
Visualization orbit readout
Latitude
Unknown
Longitude
Unknown
Altitude
Unknown
Speed
Unknown
Apparent Right ascension
Unknown
Apparent Declination
Unknown
Sunlit
N/A
Visualization observer readout
Local Sidereal Time
07:16:26
Azimuth
Unknown
Elevation
Unknown
Doppler factor
Unknown
Orbital elements
Apogee altitude
508.715 km
Perigee altitude
503.138 km
Semi-major axis
6,884.064 km
Eccentricity
0.00041
Inclination
45.4008°
RAAN
105.0776°
Arg. of periapsis
58.2516°
True anomaly
301.83708°
Mean anomaly
301.8765°
Eccentric anomaly
301.85679°
Mean motion
3.79993 °/min
Orbital period
94.74 mins
BSTAR
0.00014065
Loading maneuver chart data...
Computing Atmospheric mass density...
Loading historical data...
Loading historical data...
Loading historical data...
Loading historical data...
Loading historical data...
Loading historical data...
Loading historical data...

Documentation

Showing up to 5 results
|